Location: Dehesa de la Cepeda
(40.6574°N, 4.3013°W)
Time: 17:35:16
(UTC+00:00)

Courier 1B Rocket - Visible Passes

Search period start: 28 July 2021 00:00
Search period end: 07 August 2021 00:00
Orbit: 920 x 1202 km, 28.2° (Epoch: 27 July)

Date Brightness Start Highest point End Pass type
(mag) Time Alt. Az. Time Alt. Az. Time Alt. Az.
28 Jul 6.4 03:28:50 17° S 03:30:42 20° SSE 03:35:03 10° ESE visible
29 Jul 6.7 02:31:26 15° SE 02:31:26 15° SE 02:33:43 10° SE visible
29 Jul 6.1 04:17:48 11° SW 04:22:29 25° S 04:27:27 10° ESE visible
30 Jul 6.1 03:20:25 22° S 03:21:43 23° S 03:26:32 10° ESE visible
31 Jul 6.6 02:23:04 18° SE 02:23:04 18° SE 02:25:31 10° ESE visible
31 Jul 6.0 04:09:25 14° SW 04:13:31 26° S 04:18:37 10° SE visible
01 Aug 6.0 03:12:07 26° S 03:12:45 26° S 03:17:52 10° ESE visible
02 Aug 6.6 02:14:50 18° SE 02:14:50 18° SE 02:17:01 10° ESE visible
02 Aug 6.0 04:01:12 17° SW 04:04:33 26° S 04:09:38 10° SE visible
03 Aug 5.9 03:03:59 27° S 03:03:59 27° S 03:09:01 10° SE visible
04 Aug 6.8 02:06:51 16° SE 02:06:51 16° SE 02:08:19 10° ESE visible
04 Aug 6.1 03:53:14 20° SW 03:55:34 24° S 04:00:31 10° SE visible
05 Aug 6.1 02:56:11 25° SSE 02:56:11 25° SSE 03:00:03 10° SE visible
05 Aug 6.5 04:43:21 10° WSW 04:47:15 17° SSW 04:51:03 10° SSE visible
06 Aug 7.2 01:59:16 11° SE 01:59:16 11° SE 01:59:29 10° SE visible
06 Aug 6.2 03:45:40 20° SSW 03:46:32 21° SSW 03:51:10 10° SSE visible
